Flag for Finland Weather past 2 weeks in Lahti, Finland

Now
39 °F

Clear.


Feels Like: 37 °F
Forecast: 41 / 64 °F
Wind: 3 mph from Northwest

Location: Utti


UV Index: 0 (Low)

Visibility: 10 mi


Pressure: 30.24 "Hg

Humidity: 87%

Dew point: 36 °F

Location of LahtiLocation

Historic Weather in Lahti

°F

Lahti temperature yesterday

Maximum temperature yesterday: 59 °F (at 2:50 PM)
Minimum temperature yesterday: 34 °F (at 3:50 AM)
Average temperature yesterday: 48 °F

Past Weeks' High & Low Weather Summary

 TemperatureHumidityPressure
High59 °F (Apr 19, 2:50 PM)100% (Apr 6, 9:20 AM)30.36 "Hg (Apr 6, 9:20 AM)
Low19 °F (Apr 10, 5:20 AM)25% (Apr 5, 5:20 PM)29.33 "Hg (Apr 14, 5:50 AM)
Average39 °F65%29.90 "Hg
* Reported Apr 5 2:20 AM — Apr 20 2:50 AM, Lahti, Weather by CustomWeather, © 2014

Note: Actual official high and low records may vary slightly from our data, if they occured in-between our weather recording intervals... More about our weather records

Advertising

Historic Weather Conditions — Data for Previous 24 hours

 ConditionsComfort  
Time TempWeatherWind HumidityBarometerVisibility
2:50 AM
Apr 20
41 °FClear.3 mph81%30.24 "Hg10 mi
2:20 AM39 °FClear.2 mph81%30.24 "Hg10 mi
1:50 AM39 °FClear.2 mph81%30.24 "Hg10 mi
1:20 AM41 °FClear.1 mph76%30.24 "Hg10 mi
12:50 AM41 °FClear.2 mph76%30.24 "Hg10 mi
12:20 AM46 °FClear.2 mph62%30.24 "Hg10 mi
11:50 PM
Apr 19
46 °FClear.3 mph62%30.24 "Hg10 mi
11:20 PM48 °FClear.5 mph58%30.21 "Hg10 mi
10:50 PM46 °FClear.7 mph62%30.21 "Hg10 mi
10:20 PM48 °FClear.7 mph58%30.21 "Hg10 mi
9:50 PM50 °FClear.6 mph54%30.21 "Hg10 mi
9:20 PM52 °FSunny.6 mph50%30.21 "Hg10 mi
8:50 PM54 °FSunny.7 mph47%30.21 "Hg10 mi
8:20 PM55 °FSunny.5 mph47%30.21 "Hg10 mi
7:50 PM55 °FSunny.5 mph44%30.21 "Hg10 mi
7:20 PM57 °FSunny.8 mph41%30.21 "Hg10 mi
6:50 PM57 °FSunny.8 mph41%30.21 "Hg10 mi
6:20 PM59 °FPassing clouds.8 mph39%30.21 "HgN/A
5:50 PM59 °FSunny.9 mph39%30.24 "Hg10 mi
5:20 PM59 °FPassing clouds.7 mph36%30.24 "HgN/A
4:50 PM59 °FPassing clouds.9 mph39%30.24 "HgN/A
4:20 PM59 °FPassing clouds.9 mph36%30.24 "HgN/A
3:50 PM59 °FPassing clouds.10 mph36%30.24 "HgN/A
3:20 PM59 °FPassing clouds.13 mph36%30.24 "HgN/A
2:50 PM59 °FPassing clouds.13 mph36%30.27 "HgN/A
2:20 PM57 °FPassing clouds.12 mph39%30.27 "HgN/A
1:50 PM57 °FPassing clouds.9 mph39%30.27 "HgN/A
1:20 PM57 °FPassing clouds.13 mph39%30.27 "HgN/A
12:50 PM55 °FPassing clouds.9 mph41%30.27 "HgN/A
12:20 PM55 °FPassing clouds.12 mph41%30.27 "HgN/A
11:50 AM54 °FPassing clouds.8 mph44%30.27 "HgN/A
11:20 AM52 °FPassing clouds.8 mph47%30.27 "HgN/A
10:50 AM50 °FPassing clouds.8 mph50%30.27 "HgN/A
10:20 AM48 °FPassing clouds.8 mph58%30.27 "HgN/A
9:50 AM46 °FPassing clouds.8 mph57%30.27 "HgN/A
9:20 AM45 °FPassing clouds.5 mph61%30.27 "HgN/A
8:50 AM41 °FPassing clouds.5 mph70%30.24 "HgN/A
8:20 AM39 °FSunny.5 mph70%30.24 "Hg10 mi
7:50 AM37 °FSunny.5 mph75%30.24 "Hg10 mi
7:20 AM37 °FSunny.1 mph81%30.24 "Hg10 mi
6:50 AM36 °FSunny.No wind81%30.24 "Hg10 mi
5:50 AM34 °FClear.3 mph87%30.21 "Hg10 mi
5:20 AM34 °FClear.5 mph87%30.21 "Hg10 mi
4:50 AM34 °FClear.3 mph81%30.21 "Hg10 mi
4:20 AM36 °FClear.3 mph81%30.21 "Hg10 mi
Weather by CustomWeather, © 2014

See weather overview